timestamp,surface_pressure_avg,surface_temp_avg,battery_voltage,lat,long
2021-03-28 00:09:01+00:00,338.1463,1.45,12.81,47.84626,-54.09684
2021-03-28 00:19:01+00:00,330.7396,1.45,12.65,47.84626,-54.09684
2021-03-28 00:29:01+00:00,325.9163,1.4,12.65,47.84626,-54.09684
2021-03-28 00:39:01+00:00,328.1380000000001,1.4,12.65,47.84626,-54.09684
2021-03-28 00:49:01+00:00,321.4713,1.4,12.65,47.84626,-54.09684
2021-03-28 00:59:01+00:00,312.693,1.4,12.65,47.84626,-54.09684
2021-03-28 01:09:01+00:00,313.573,1.4,12.65,47.84626,-54.09684
2021-03-28 01:19:01+00:00,313.203,1.34,12.65,47.84626,-54.09684
2021-03-28 01:29:01+00:00,303.4664,1.3,12.65,47.84626,-54.09684
2021-03-28 01:39:01+00:00,290.798,1.3,12.65,47.84626,-54.09684
2021-03-28 01:49:01+00:00,283.1481,1.3,12.65,47.84626,-54.09684
2021-03-28 01:59:01+00:00,282.0597,1.3,12.65,47.84626,-54.09684
2021-03-28 02:09:01+00:00,275.7681,1.26,12.65,47.84626,-54.09684
2021-03-28 02:19:01+00:00,262.2564,1.12,12.65,47.84626,-54.09684
2021-03-28 02:29:01+00:00,252.2115,1.3,12.65,47.84626,-54.09684
2021-03-28 02:39:01+00:00,248.4948,1.3,12.65,47.84626,-54.09684
2021-03-28 02:49:01+00:00,242.8048,1.3,12.65,47.84626,-54.09684
2021-03-28 02:59:01+00:00,232.1697,1.3,12.65,47.84626,-54.09684
2021-03-28 03:09:01+00:00,224.5814,1.2,12.65,47.84626,-54.09684
2021-03-28 03:19:01+00:00,220.6714,1.2,12.65,47.84626,-54.09684
2021-03-28 03:29:01+00:00,212.9164,1.2,12.65,47.84626,-54.09684
2021-03-28 03:39:01+00:00,203.2131,1.23,12.65,47.84626,-54.09684
2021-03-28 03:49:01+00:00,198.1082,1.27,12.65,47.84626,-54.09684
2021-03-28 03:59:01+00:00,197.2631,1.25,12.65,47.84626,-54.09684
2021-03-28 04:09:01+00:00,190.1048,1.1,12.65,47.84626,-54.09684
2021-03-28 04:19:01+00:00,184.5231,1.11,12.57,47.84626,-54.09684
2021-03-28 04:29:01+00:00,185.4164,1.1,12.57,47.84626,-54.09684
2021-03-28 04:39:01+00:00,181.4265,1.02,12.57,47.84626,-54.09684
2021-03-28 04:49:01+00:00,180.5748,1.1,12.57,47.84626,-54.09684
2021-03-28 04:59:01+00:00,183.8148,1.1,12.57,47.84626,-54.09684
2021-03-28 05:09:01+00:00,182.9865,1.12,12.57,47.84626,-54.09684
2021-03-28 05:19:01+00:00,179.0948,1.11,12.57,47.84626,-54.09684
2021-03-28 05:29:01+00:00,182.1581,1.1,12.57,47.84626,-54.09684
2021-03-28 05:39:01+00:00,187.2281,1.1,12.57,47.84626,-54.09684
2021-03-28 05:49:01+00:00,184.4015,1.1,12.57,47.84626,-54.09684
2021-03-28 05:59:01+00:00,182.5031,1.1,12.57,47.84626,-54.09684
2021-03-28 06:09:01+00:00,184.1165,1.1,12.57,47.84626,-54.09684
2021-03-28 06:19:01+00:00,187.4665,1.1,12.57,47.84626,-54.09684
2021-03-28 06:29:01+00:00,196.4164,1.1,12.57,47.84626,-54.09684
2021-03-28 06:39:01+00:00,207.2897,1.1,12.57,47.84626,-54.09684
2021-03-28 06:49:01+00:00,208.2465,1.1,12.57,47.84626,-54.09684
2021-03-28 06:59:01+00:00,213.3698,1.1,12.57,47.84626,-54.09684
2021-03-28 07:09:01+00:00,225.4814,1.1,12.57,47.84626,-54.09684
2021-03-28 07:19:01+00:00,231.1297,1.1,12.49,47.84626,-54.09684
2021-03-28 07:29:01+00:00,229.6264,1.1,12.49,47.84626,-54.09684
2021-03-28 07:39:01+00:00,233.8448,1.1,12.49,47.84626,-54.09684
2021-03-28 07:49:01+00:00,242.5998,1.1,12.49,47.84626,-54.09684
2021-03-28 07:59:01+00:00,245.3881,1.0,12.49,47.84626,-54.09684
2021-03-28 08:09:01+00:00,246.6514,0.97,12.49,47.84626,-54.09684
2021-03-28 08:19:01+00:00,253.9731,1.07,12.49,47.84626,-54.09684
2021-03-28 08:29:01+00:00,261.1447,1.1,12.49,47.84626,-54.09684
2021-03-28 08:39:01+00:00,269.0831,1.1,12.49,47.84626,-54.09684
2021-03-28 08:49:01+00:00,278.1997,0.83,12.49,47.84626,-54.09684
2021-03-28 08:59:01+00:00,290.5914,1.1,12.49,47.84626,-54.09684
2021-03-28 09:09:01+00:00,300.2247,1.1,12.49,47.84626,-54.09684
2021-03-28 09:19:01+00:00,310.1197,1.1,12.41,47.84626,-54.09684
2021-03-28 09:29:01+00:00,317.7513,1.1,12.41,47.84626,-54.09684
2021-03-28 09:39:01+00:00,327.5829,1.1,12.41,47.84626,-54.09684
2021-03-28 09:49:01+00:00,341.0164,1.1,12.41,47.84626,-54.09684
2021-03-28 09:59:01+00:00,346.8931,1.1,12.41,47.84626,-54.09684
2021-03-28 10:09:01+00:00,348.7746,1.1,12.41,47.84626,-54.09684
2021-03-28 10:19:01+00:00,353.9396,1.1,12.49,47.84626,-54.09684
2021-03-28 10:29:01+00:00,360.5812,1.1,12.49,47.84626,-54.09684
2021-03-28 10:39:01+00:00,359.4446,1.1,12.49,47.84626,-54.09684
2021-03-28 10:49:01+00:00,361.5196,1.1,12.49,47.84626,-54.09684
2021-03-28 10:59:01+00:00,367.3646,1.1,12.49,47.84626,-54.09684
2021-03-28 11:09:01+00:00,371.338,1.1,12.49,47.84626,-54.09684
2021-03-28 11:19:01+00:00,374.5013,1.1,13.37,47.84626,-54.09684
2021-03-28 11:29:01+00:00,379.5362,1.1,13.37,47.84626,-54.09684
2021-03-28 11:39:01+00:00,379.0912,1.1,13.37,47.84626,-54.09684
2021-03-28 11:49:01+00:00,377.2679,1.1,13.37,47.84626,-54.09684
2021-03-28 11:59:01+00:00,373.9962,1.1,13.37,47.84626,-54.09684
2021-03-28 12:09:01+00:00,371.6146,1.1,13.37,47.84626,-54.09684
2021-03-28 12:19:01+00:00,366.6746,1.1,14.88,47.84626,-54.09684
2021-03-28 12:29:01+00:00,363.8412,1.1,14.88,47.84626,-54.09684
2021-03-28 12:39:01+00:00,366.1196,1.1,14.88,47.84626,-54.09684
2021-03-28 12:49:01+00:00,360.6163,1.1,14.88,47.84626,-54.09684
2021-03-28 12:59:01+00:00,350.588,1.08,14.88,47.84626,-54.09684
2021-03-28 13:09:01+00:00,352.7278,1.07,14.88,47.84626,-54.09684
2021-03-28 13:19:01+00:00,349.1263,1.0,14.4,47.84626,-54.09684
2021-03-28 13:29:01+00:00,338.9363,1.0,14.4,47.84626,-54.09684
2021-03-28 13:39:01+00:00,334.7112,1.04,14.4,47.84626,-54.09684
2021-03-28 13:49:01+00:00,328.4246,1.1,14.4,47.84626,-54.09684
2021-03-28 13:59:01+00:00,310.7047,1.08,14.4,47.84626,-54.09684
2021-03-28 14:09:01+00:00,296.8181,1.0,14.4,47.84626,-54.09684
2021-03-28 14:19:01+00:00,292.6564,1.07,14.4,47.84626,-54.09684
2021-03-28 14:29:01+00:00,278.5097,1.09,14.4,47.84626,-54.09684
2021-03-28 14:39:01+00:00,261.2347,1.09,14.4,47.84626,-54.09684
2021-03-28 14:49:01+00:00,255.8848,1.09,14.4,47.84626,-54.09684
2021-03-28 14:59:01+00:00,249.6397,1.1,14.4,47.84626,-54.09684
2021-03-28 15:09:01+00:00,237.1714,1.1,14.4,47.84626,-54.09684
2021-03-28 15:19:01+00:00,227.3231,1.16,14.8,47.84626,-54.09684
2021-03-28 15:29:01+00:00,220.6814,1.28,14.8,47.84626,-54.09684
2021-03-28 15:39:01+00:00,211.8031,1.38,14.8,47.84626,-54.09684
2021-03-28 15:49:01+00:00,204.0598,1.4,14.8,47.84626,-54.09684
2021-03-28 15:59:01+00:00,202.2914,1.41,14.8,47.84626,-54.09684
2021-03-28 16:09:01+00:00,197.5531,1.46,14.8,47.84626,-54.09684
2021-03-28 16:19:01+00:00,186.4715,1.58,14.56,47.84626,-54.09684
2021-03-28 16:29:01+00:00,177.1781,1.6,14.56,47.84626,-54.09684
2021-03-28 16:39:01+00:00,171.8481,1.6,14.56,47.84626,-54.09684
2021-03-28 16:49:01+00:00,166.8331,1.5,14.56,47.84626,-54.09684
2021-03-28 16:59:01+00:00,163.8998,1.5,14.56,47.84626,-54.09684
2021-03-28 17:09:01+00:00,160.9315,1.5,14.56,47.84626,-54.09684
2021-03-28 17:19:01+00:00,157.2816,1.5,14.4,47.84626,-54.09684
2021-03-28 17:29:01+00:00,158.4865,1.5,14.4,47.84626,-54.09684
2021-03-28 17:39:01+00:00,161.1098,1.5,14.4,47.84626,-54.09684
2021-03-28 17:49:01+00:00,161.0915,1.5,14.4,47.84626,-54.09684
2021-03-28 17:59:01+00:00,164.6248,1.49,14.4,47.84626,-54.09684
2021-03-28 18:09:01+00:00,163.7999,1.49,14.4,47.84626,-54.09684
2021-03-28 18:19:01+00:00,161.0832,1.46,14.32,47.84626,-54.09684
2021-03-28 18:29:01+00:00,164.7281,1.46,14.32,47.84626,-54.09684
2021-03-28 18:39:01+00:00,169.2748,1.3,14.32,47.84626,-54.09684
2021-03-28 18:49:01+00:00,171.4149,1.3,14.32,47.84626,-54.09684
2021-03-28 18:59:01+00:00,170.6531,1.31,14.32,47.84626,-54.09684
2021-03-28 19:09:01+00:00,167.6698,1.59,14.32,47.84626,-54.09684
2021-03-28 19:19:01+00:00,170.4048,1.6,14.32,47.84626,-54.09684
2021-03-28 19:29:01+00:00,180.6965,1.36,14.32,47.84626,-54.09684
2021-03-28 19:39:01+00:00,184.2782,1.25,14.32,47.84626,-54.09684
2021-03-28 19:49:01+00:00,182.0748,1.2,14.32,47.84626,-54.09684
2021-03-28 19:59:01+00:00,195.4548,1.22,14.32,47.84626,-54.09684
2021-03-28 20:09:01+00:00,208.4231,1.23,14.32,47.84626,-54.09684
2021-03-28 20:19:01+00:00,211.2931,1.25,14.08,47.84626,-54.09684
2021-03-28 20:29:01+00:00,221.8181,1.25,14.08,47.84626,-54.09684
2021-03-28 20:39:01+00:00,239.0531,1.25,14.08,47.84626,-54.09684
2021-03-28 20:49:01+00:00,251.0181,1.27,14.08,47.84626,-54.09684
2021-03-28 20:59:01+00:00,255.0181,1.29,14.08,47.84626,-54.09684
2021-03-28 21:09:01+00:00,260.1314,1.3,14.08,47.84626,-54.09684
2021-03-28 21:19:01+00:00,269.4281,1.3,13.84,47.84626,-54.09684
2021-03-28 21:29:01+00:00,280.4964,1.3,13.84,47.84626,-54.09684
2021-03-28 21:39:01+00:00,284.1798,1.3,13.84,47.84626,-54.09684
2021-03-28 21:49:01+00:00,291.0114,1.3,13.84,47.84626,-54.09684
2021-03-28 21:59:01+00:00,306.708,1.3,13.84,47.84626,-54.09684
2021-03-28 22:09:01+00:00,317.7213,1.3,13.84,47.84626,-54.09684
2021-03-28 22:19:01+00:00,326.3279,1.3,13.44,47.84626,-54.09684
2021-03-28 22:29:01+00:00,339.853,1.29,13.44,47.84626,-54.09684
2021-03-28 22:39:01+00:00,351.6897,1.3,13.44,47.84626,-54.09684
2021-03-28 22:49:01+00:00,353.2629,1.3,13.44,47.84626,-54.09684
2021-03-28 22:59:01+00:00,352.1431,1.3,13.44,47.84626,-54.09684
2021-03-28 23:09:01+00:00,357.5447,1.3,13.44,47.84626,-54.09684
2021-03-28 23:19:01+00:00,361.6762,1.3,13.13,47.84626,-54.09684
2021-03-28 23:29:01+00:00,365.4146,1.3,13.13,47.84626,-54.09684
2021-03-28 23:39:01+00:00,363.2346,1.3,13.13,47.84626,-54.09684
2021-03-28 23:49:01+00:00,361.2645,1.3,13.13,47.84626,-54.09684
2021-03-28 23:59:01+00:00,368.5196,1.3,13.13,47.84626,-54.09684
